EW6903 Weather Reports


time (UTC)temp
C
wind
direction
speed
KPH
gust
KPH
rain 1hr
cm
rain 24hr
cm
rain mn
cm
humidity
%
barometer
mb
20260505034612 17 193 0.0 0.0 0.00 0.00 0.00 80 1014.3
20260505033058 17 193 0.0 0.0 0.00 0.00 0.00 79 1014.3
20260505031600 17 193 0.0 0.0 0.00 0.00 0.00 79 1014.2
20260505030114 17 193 0.0 0.0 0.00 0.00 0.00 78 1014.3
20260505024611 18 193 0.0 0.0 0.00 0.00 0.00 78 1014.3
20260505023057 18 193 0.0 0.0 0.00 0.00 0.00 75 1014.4
20260505021556 19 193 0.0 0.0 0.00 0.00 0.00 73 1014.2
20260505020107 19 193 0.0 0.0 0.00 0.00 0.00 73 1014.1
20260505014556 19 193 0.0 0.0 0.00 0.00 0.00 72 1014.0
20260505013055 20 193 0.0 0.0 0.00 0.00 0.00 71 1013.9
20260505011559 20 193 0.0 0.0 0.00 0.00 0.00 68 1013.9
20260505010109 20 193 0.0 0.0 0.00 0.00 0.00 66 1014.0
20260505004605 21 195 0.0 0.0 0.00 0.00 0.00 64 1014.3
20260505003057 21 188 0.0 0.0 0.00 0.00 0.00 63 1014.3
20260505001551 22 186 1.6 0.0 0.00 0.00 0.00 61 1014.4
20260504234548 22 178 0.0 0.0 0.00 0.00 0.00 59 1014.5
20260504233049 23 181 3.2 0.0 0.00 0.00 0.00 57 1014.5
20260504231617 23 192 3.2 0.0 0.00 0.00 0.00 56 1014.8
20260504230045 23 169 1.6 0.0 0.00 0.00 0.00 54 1014.8
20260504224545 24 218 1.6 0.0 0.00 0.00 0.00 52 1015.0
20260504223046 24 178 1.6 0.0 0.00 0.00 0.00 51 1015.1
20260504221623 25 192 4.8 0.0 0.00 0.00 0.00 50 1015.2
20260504220041 25 172 3.2 0.0 0.00 0.00 0.00 49 1015.3
20260504214541 25 229 4.8 0.0 0.00 0.00 0.00 47 1015.1
20260504213044 25 177 1.6 0.0 0.00 0.00 0.00 46 1015.1
20260504211538 25 180 3.2 0.0 0.00 0.00 0.00 46 1015.4
20260504210045 26 241 1.6 0.0 0.00 0.00 0.00 43 1015.4
20260504204537 25 180 3.2 0.0 0.00 0.00 0.00 42 1015.6
20260504203035 25 234 4.8 0.0 0.00 0.00 0.00 41 1015.8
20260504201532 25 165 3.2 0.0 0.00 0.00 0.00 42 1016.0
20260504200029 25 189 4.8 0.0 0.00 0.00 0.00 41 1016.5
20260504194533 26 233 3.2 0.0 0.00 0.00 0.00 41 1016.8
20260504193027 26 185 4.8 0.0 0.00 0.00 0.00 44 1016.9
20260504191539 26 188 4.8 0.0 0.00 0.00 0.00 44 1017.0
20260504190025 26 218 4.8 0.0 0.00 0.00 0.00 44 1017.0
20260504184539 25 132 3.2 0.0 0.00 0.00 0.00 45 1017.1
20260504183021 26 201 3.2 0.0 0.00 0.00 0.00 42 1017.4
20260504181520 26 196 4.8 0.0 0.00 0.00 0.00 43 1017.6
20260504180020 26 184 3.2 0.0 0.00 0.00 0.00 47 1017.7
20260504174518 25 221 3.2 0.0 0.00 0.00 0.00 48 1017.5
20260504173017 26 180 3.2 0.0 0.00 0.00 0.00 49 1017.7
20260504171516 25 176 3.2 0.0 0.00 0.00 0.00 49 1017.7
20260504140104 21 50 1.6 0.0 0.00 0.00 0.00 69 1018.6
20260504081515 11 37 0.0 0.0 0.00 0.00 0.00 89 1018.0
20260504060107 13 37 0.0 0.0 0.00 0.00 0.00 85 1019.0
20260504044549 14 37 0.0 0.0 0.00 0.00 0.00 81 1019.6
20260504043050 15 37 0.0 0.0 0.00 0.00 0.00 79 1019.6
20260504041549 15 37 0.0 0.0 0.00 0.00 0.00 78 1019.7
20260504040048 15 37 0.0 0.0 0.00 0.00 0.00 78 1019.7